Time,TemperatureF,DewpointF,PressureIn,WindDirection,WindDirectionDegrees,WindSpeedMPH,WindSpeedGustMPH,Humidity,HourlyPrecipIn,Conditions,Clouds,dailyrainin,SolarRadiationWatts/m^2,SoftwareType,DateUTC
2013-04-23 00:12:00,39.0,37.0,-100.00,NW,315,16.0,27.0,94,0.00,,,0.17,0.000000,,2013-04-23 05:12:00,
2013-04-23 00:22:00,39.0,37.0,-100.00,NW,315,16.0,27.0,94,0.00,,,0.17,0.000000,,2013-04-23 05:22:00,
2013-04-23 00:32:00,39.0,37.0,-100.00,NW,315,16.0,27.0,94,0.00,,,0.17,0.000000,,2013-04-23 05:32:00,
2013-04-23 00:42:00,39.0,37.0,-100.00,NW,315,16.0,27.0,94,0.00,,,0.17,0.000000,,2013-04-23 05:42:00,
2013-04-23 01:12:00,37.0,35.0,-100.00,NW,320,18.0,28.0,93,0.00,,,0.17,0.000000,,2013-04-23 06:12:00,
2013-04-23 01:21:00,37.0,35.0,-100.00,NW,320,18.0,28.0,93,0.00,,,0.17,0.000000,,2013-04-23 06:21:00,
2013-04-23 01:33:00,37.0,35.0,-100.00,NW,320,18.0,28.0,93,0.00,,,0.17,0.000000,,2013-04-23 06:33:00,
2013-04-23 01:42:00,37.0,35.0,-100.00,NW,320,18.0,28.0,93,0.00,,,0.17,0.000000,,2013-04-23 06:42:00,
2013-04-23 02:11:00,36.0,33.0,-100.00,NW,322,22.0,30.0,90,0.00,,,0.14,0.000000,,2013-04-23 07:11:00,
2013-04-23 02:21:00,36.0,33.0,-100.00,NW,322,22.0,30.0,90,0.00,,,0.14,0.000000,,2013-04-23 07:21:00,
2013-04-23 02:32:00,36.0,33.0,-100.00,NW,322,22.0,30.0,90,0.00,,,0.14,0.000000,,2013-04-23 07:32:00,
2013-04-23 02:42:00,36.0,33.0,-100.00,NW,322,22.0,30.0,90,0.00,,,0.14,0.000000,,2013-04-23 07:42:00,
2013-04-23 03:11:00,35.0,33.0,-100.00,NNW,330,20.0,28.0,91,0.00,,,0.10,0.000000,,2013-04-23 08:11:00,
2013-04-23 03:21:00,35.0,33.0,-100.00,NNW,330,20.0,28.0,91,0.00,,,0.10,0.000000,,2013-04-23 08:21:00,
2013-04-23 03:32:00,35.0,33.0,-100.00,NNW,330,20.0,28.0,91,0.00,,,0.10,0.000000,,2013-04-23 08:32:00,
2013-04-23 03:42:00,35.0,33.0,-100.00,NNW,330,20.0,28.0,91,0.00,,,0.10,0.000000,,2013-04-23 08:42:00,
2013-04-23 04:11:00,35.0,32.0,-100.00,NNW,337,19.0,29.0,89,0.00,,,0.10,0.000000,,2013-04-23 09:11:00,
2013-04-23 04:21:00,35.0,32.0,-100.00,NNW,337,19.0,29.0,89,0.00,,,0.10,0.000000,,2013-04-23 09:21:00,
2013-04-23 04:33:00,35.0,32.0,-100.00,NNW,337,19.0,29.0,89,0.00,,,0.10,0.000000,,2013-04-23 09:33:00,
2013-04-23 04:43:00,35.0,32.0,-100.00,NNW,337,19.0,29.0,89,0.00,,,0.10,0.000000,,2013-04-23 09:43:00,
2013-04-23 05:13:00,34.0,31.0,-100.00,NNW,329,17.0,25.0,88,0.00,,,0.09,0.000000,,2013-04-23 10:13:00,
2013-04-23 05:22:00,34.0,31.0,-100.00,NNW,329,17.0,25.0,88,0.00,,,0.09,0.000000,,2013-04-23 10:22:00,
2013-04-23 05:33:00,34.0,31.0,-100.00,NNW,329,17.0,25.0,88,0.00,,,0.09,0.000000,,2013-04-23 10:33:00,
2013-04-23 05:42:00,34.0,31.0,-100.00,NNW,329,17.0,25.0,88,0.00,,,0.09,0.000000,,2013-04-23 10:42:00,
2013-04-23 06:12:00,34.0,31.0,-100.00,NNW,340,20.0,26.0,88,0.00,,,0.08,0.000000,,2013-04-23 11:12:00,
2013-04-23 06:21:00,34.0,31.0,-100.00,NNW,340,20.0,26.0,88,0.00,,,0.08,0.000000,,2013-04-23 11:21:00,
2013-04-23 06:32:00,34.0,31.0,-100.00,NNW,340,20.0,26.0,88,0.00,,,0.08,0.000000,,2013-04-23 11:32:00,
2013-04-23 06:42:00,34.0,31.0,-100.00,NNW,340,20.0,26.0,88,0.00,,,0.08,0.000000,,2013-04-23 11:42:00,
2013-04-23 07:12:00,34.0,31.0,-100.00,NNW,345,18.0,28.0,87,0.00,,,0.08,1.000000,,2013-04-23 12:12:00,
2013-04-23 07:22:00,34.0,31.0,-100.00,NNW,345,18.0,28.0,87,0.00,,,0.08,1.000000,,2013-04-23 12:22:00,
2013-04-23 07:32:00,34.0,31.0,-100.00,NNW,345,18.0,28.0,87,0.00,,,0.08,1.000000,,2013-04-23 12:32:00,
2013-04-23 07:42:00,34.0,31.0,-100.00,NNW,345,18.0,28.0,87,0.00,,,0.08,1.000000,,2013-04-23 12:42:00,
2013-04-23 08:11:00,34.0,30.0,-100.00,North,360,19.0,32.0,84,0.00,,,0.08,23.000000,,2013-04-23 13:11:00,
2013-04-23 08:21:00,34.0,30.0,-100.00,North,360,19.0,32.0,84,0.00,,,0.08,23.000000,,2013-04-23 13:21:00,
2013-04-23 08:32:00,34.0,30.0,-100.00,North,360,19.0,32.0,84,0.00,,,0.08,23.000000,,2013-04-23 13:32:00,
2013-04-23 08:42:00,34.0,30.0,-100.00,North,360,19.0,32.0,84,0.00,,,0.08,23.000000,,2013-04-23 13:42:00,
2013-04-23 09:11:00,34.0,30.0,-100.00,NNW,336,21.0,29.0,85,0.00,,,0.08,49.000000,,2013-04-23 14:11:00,
2013-04-23 09:22:00,34.0,30.0,-100.00,NNW,336,21.0,29.0,85,0.00,,,0.08,49.000000,,2013-04-23 14:22:00,
2013-04-23 09:32:00,34.0,30.0,-100.00,NNW,336,21.0,29.0,85,0.00,,,0.08,49.000000,,2013-04-23 14:32:00,
2013-04-23 09:42:00,34.0,30.0,-100.00,NNW,336,21.0,29.0,85,0.00,,,0.08,49.000000,,2013-04-23 14:42:00,
2013-04-23 10:12:00,34.0,30.0,-100.00,NNW,339,18.0,26.0,84,0.00,,,0.08,123.000000,,2013-04-23 15:12:00,
2013-04-23 10:21:00,34.0,30.0,-100.00,NNW,339,18.0,26.0,84,0.00,,,0.08,123.000000,,2013-04-23 15:21:00,
2013-04-23 10:32:00,34.0,30.0,-100.00,NNW,339,18.0,26.0,84,0.00,,,0.08,123.000000,,2013-04-23 15:32:00,
2013-04-23 10:42:00,34.0,30.0,-100.00,NNW,339,18.0,26.0,84,0.00,,,0.08,123.000000,,2013-04-23 15:42:00,
2013-04-23 11:12:00,34.0,29.0,-100.00,NNW,332,20.0,28.0,83,0.00,,,0.08,152.000000,,2013-04-23 16:12:00,
2013-04-23 11:23:00,34.0,29.0,-100.00,NNW,332,20.0,28.0,83,0.00,,,0.08,152.000000,,2013-04-23 16:23:00,
2013-04-23 11:34:00,34.0,29.0,-100.00,NNW,332,20.0,28.0,83,0.00,,,0.08,152.000000,,2013-04-23 16:34:00,
2013-04-23 11:43:00,34.0,29.0,-100.00,NNW,332,20.0,28.0,83,0.00,,,0.08,152.000000,,2013-04-23 16:43:00,
2013-04-23 12:12:00,35.0,30.0,-100.00,NNW,334,18.0,26.0,81,0.00,,,0.08,274.000000,,2013-04-23 17:12:00,
2013-04-23 12:22:00,35.0,30.0,-100.00,NNW,334,18.0,26.0,81,0.00,,,0.08,274.000000,,2013-04-23 17:22:00,
2013-04-23 12:32:00,35.0,30.0,-100.00,NNW,334,18.0,26.0,81,0.00,,,0.08,274.000000,,2013-04-23 17:32:00,
2013-04-23 12:42:00,35.0,30.0,-100.00,NNW,334,18.0,26.0,81,0.00,,,0.08,274.000000,,2013-04-23 17:42:00,
2013-04-23 13:12:00,38.0,31.0,-100.00,NNW,346,18.0,28.0,76,0.00,,,0.08,375.000000,,2013-04-23 18:12:00,
2013-04-23 13:22:00,38.0,31.0,-100.00,NNW,346,18.0,28.0,76,0.00,,,0.08,375.000000,,2013-04-23 18:22:00,
2013-04-23 13:32:00,38.0,31.0,-100.00,NNW,346,18.0,28.0,76,0.00,,,0.08,375.000000,,2013-04-23 18:32:00,
2013-04-23 13:42:00,38.0,31.0,-100.00,NNW,346,18.0,28.0,76,0.00,,,0.08,375.000000,,2013-04-23 18:42:00,
2013-04-23 14:11:00,38.0,30.0,-100.00,NNW,344,18.0,24.0,74,0.00,,,0.08,302.000000,,2013-04-23 19:11:00,
2013-04-23 14:22:00,38.0,30.0,-100.00,NNW,344,18.0,24.0,74,0.00,,,0.08,302.000000,,2013-04-23 19:22:00,
2013-04-23 14:32:00,38.0,30.0,-100.00,NNW,344,18.0,24.0,74,0.00,,,0.08,302.000000,,2013-04-23 19:32:00,
2013-04-23 14:42:00,38.0,30.0,-100.00,NNW,344,18.0,24.0,74,0.00,,,0.08,302.000000,,2013-04-23 19:42:00,
2013-04-23 15:11:00,40.0,31.0,-100.00,NNW,343,19.0,25.0,69,0.00,,,-99.99,297.000000,,2013-04-23 20:11:00,
2013-04-23 15:22:00,40.0,31.0,-100.00,NNW,343,19.0,25.0,69,0.00,,,-99.99,297.000000,,2013-04-23 20:22:00,
2013-04-23 15:32:00,40.0,31.0,-100.00,NNW,343,19.0,25.0,69,0.00,,,-99.99,297.000000,,2013-04-23 20:32:00,
2013-04-23 15:42:00,40.0,31.0,-100.00,NNW,343,19.0,25.0,69,0.00,,,-99.99,297.000000,,2013-04-23 20:42:00,
2013-04-23 16:12:00,41.0,31.0,-100.00,NNW,343,17.0,26.0,67,0.00,,,0.08,313.000000,,2013-04-23 21:12:00,
2013-04-23 16:21:00,41.0,31.0,-100.00,NNW,343,17.0,26.0,67,0.00,,,0.08,313.000000,,2013-04-23 21:21:00,
2013-04-23 16:33:00,41.0,31.0,-100.00,NNW,343,17.0,26.0,67,0.00,,,0.08,313.000000,,2013-04-23 21:33:00,
2013-04-23 16:43:00,41.0,31.0,-100.00,NNW,343,17.0,26.0,67,0.00,,,0.08,313.000000,,2013-04-23 21:43:00,
2013-04-23 17:12:00,41.0,29.0,-100.00,NNW,334,20.0,27.0,62,0.00,,,0.08,341.000000,,2013-04-23 22:12:00,
2013-04-23 17:22:00,41.0,29.0,-100.00,NNW,334,20.0,27.0,62,0.00,,,0.08,341.000000,,2013-04-23 22:22:00,
2013-04-23 17:33:00,41.0,29.0,-100.00,NNW,334,20.0,27.0,62,0.00,,,0.08,341.000000,,2013-04-23 22:33:00,
2013-04-23 17:42:00,41.0,29.0,-100.00,NNW,334,20.0,27.0,62,0.00,,,0.08,341.000000,,2013-04-23 22:42:00,
2013-04-23 18:12:00,41.0,29.0,-100.00,NNW,341,19.0,26.0,61,0.00,,,0.08,270.000000,,2013-04-23 23:12:00,
2013-04-23 18:22:00,41.0,29.0,-100.00,NNW,341,19.0,26.0,61,0.00,,,0.08,270.000000,,2013-04-23 23:22:00,
2013-04-23 18:32:00,41.0,29.0,-100.00,NNW,341,19.0,26.0,61,0.00,,,0.08,270.000000,,2013-04-23 23:32:00,
2013-04-23 18:42:00,41.0,29.0,-100.00,NNW,341,19.0,26.0,61,0.00,,,0.08,270.000000,,2013-04-23 23:42:00,
2013-04-23 19:11:00,40.0,27.0,-100.00,NNW,335,18.0,24.0,59,0.00,,,-99.99,121.000000,,2013-04-24 00:11:00,
2013-04-23 19:22:00,40.0,27.0,-100.00,NNW,335,18.0,24.0,59,0.00,,,-99.99,121.000000,,2013-04-24 00:22:00,
2013-04-23 19:32:00,40.0,27.0,-100.00,NNW,335,18.0,24.0,59,0.00,,,-99.99,121.000000,,2013-04-24 00:32:00,
2013-04-23 19:41:00,40.0,27.0,-100.00,NNW,335,18.0,24.0,59,0.00,,,-99.99,121.000000,,2013-04-24 00:41:00,
2013-04-23 20:11:00,38.0,26.0,-100.00,NNW,331,17.0,26.0,62,0.00,,,0.02,55.000000,,2013-04-24 01:11:00,
2013-04-23 20:21:00,38.0,26.0,-100.00,NNW,331,17.0,26.0,62,0.00,,,0.02,55.000000,,2013-04-24 01:21:00,
2013-04-23 20:32:00,38.0,26.0,-100.00,NNW,331,17.0,26.0,62,0.00,,,0.02,55.000000,,2013-04-24 01:32:00,
2013-04-23 20:42:00,38.0,26.0,-100.00,NNW,331,17.0,26.0,62,0.00,,,0.02,55.000000,,2013-04-24 01:42:00,
2013-04-23 21:18:00,36.0,26.0,-100.00,NNW,335,13.0,25.0,68,0.00,,,0.02,3.000000,,2013-04-24 02:18:00,
2013-04-23 21:29:00,36.0,26.0,-100.00,NNW,335,13.0,25.0,68,0.00,,,0.02,3.000000,,2013-04-24 02:29:00,
2013-04-23 21:39:00,36.0,26.0,-100.00,NNW,335,13.0,25.0,68,0.00,,,0.02,3.000000,,2013-04-24 02:39:00,
2013-04-23 21:46:00,36.0,26.0,-100.00,NNW,335,13.0,25.0,68,0.00,,,0.02,3.000000,,2013-04-24 02:46:00,
2013-04-23 21:48:00,35.0,26.0,-100.00,NNW,332,12.0,18.0,70,0.00,,,0.00,0.000000,,2013-04-24 02:48:00,
2013-04-23 22:17:00,35.0,26.0,-100.00,NNW,332,12.0,18.0,70,0.00,,,0.00,0.000000,,2013-04-24 03:17:00,
2013-04-23 22:40:00,35.0,26.0,-100.00,NNW,332,12.0,18.0,70,0.00,,,0.00,0.000000,,2013-04-24 03:40:00,
2013-04-23 23:12:00,34.0,26.0,-100.00,NW,323,12.0,22.0,71,0.00,,,0.00,0.000000,,2013-04-24 04:12:00,
2013-04-23 23:23:00,34.0,26.0,-100.00,NW,323,12.0,22.0,71,0.00,,,0.00,0.000000,,2013-04-24 04:23:00,
2013-04-23 23:33:00,34.0,26.0,-100.00,NW,323,12.0,22.0,71,0.00,,,0.00,0.000000,,2013-04-24 04:33:00,
2013-04-23 23:43:00,34.0,26.0,-100.00,NW,323,12.0,22.0,71,0.00,,,0.00,0.000000,,2013-04-24 04:43:00,